Powrót do katalogu

DELTA 1 DEB

AktywnySSO
NORAD 21282·DEBRIS·🇺🇸 United States

Wystrzelony Jun 12, 1975 z Vandenberg Space Force Base

Loading…

Następne Przeloty (najbliższe 24 godziny)

TLE

ŚwieżeSource: Space-Track

Epoka: Sep 14, 2026, 14:09 UTC

1 21282U 75052T   26257.58979128  .00000057  00000-0  21923-3 0  9997
2 21282  99.8236 186.4019 0100878  74.5474 100.0629 13.24866919709708

Śledź DELTA 1 DEB w czasie rzeczywistym z AllMySat

Download on the App Store